Weather History for New Richmond, WI

Change the Weather History Date:

Sunday, February 23, 2014

  Actual Average (KMSP) Record (KMSP)
Temperature  
Mean Temperature 8 °F 24 °F  
Max Temperature 16 °F 32 °F 59 °F (1958)
Min Temperature 0 °F 16 °F -25 °F (1889)
Degree Days  
Heating Degree Days 57 41  
Month to date heating degree days 1037  
Since 1 July heating degree days 5591  
Cooling Degree Days 0 0  
Month to date cooling degree days 0  
Year to date cooling degree days 0  
Moisture  
Dew Point 0 °F    
Average Humidity 72    
Maximum Humidity 81    
Minimum Humidity 62    
Precipitation  
Precipitation 0.00 in 0.03 in 0.63 in (1909)
Month to date precipitation 0.58  
Year to date precipitation 1.48  
Snow  
Snow 0.00 in 0.40 in 6.30 in (1909)
Month to date snowfall 6.2  
Since 1 July snowfall 40.2  
Snow Depth -    
Sea Level Pressure  
Sea Level Pressure 30.16 in    
Wind  
Wind Speed 10 mph (West)    
Max Wind Speed 18 mph    
Max Gust Speed 22 mph    
Visibility 10 miles    
Events      
T = Trace of Precipitation, MM = Missing Value Source: NWS Daily Summary

Daily Weather History Graph

Daily Weather History Graph

Search for Another Location

Airport:

Trip Planner

Search our weather history database for the weather conditions in past years. The results will help you decide how hot, cold, wet, or windy it might be!

Date:

Astronomy

Feb. 23, 2014 Rise Set
Actual Time 6:58 AM CST 5:49 PM CST
Civil Twilight 6:28 AM CST 6:19 PM CST
Nautical Twilight 5:54 AM CST 6:53 PM CST
Astronomical Twilight 5:20 AM CST 7:27 PM CST
Moon 2:05 AM CST (2/23) 11:43 AM CST (2/23)
Length of Visible Light 11h 50m
Length of Day
10h 50m
Last Quarter, 38% of the Moon is Illuminated
Feb 23
Last Quarter
Mar 1
New
Mar 8
First Quarter
Mar 16
Full
Mar 23
Last Quarter

Hourly Weather History & Observations

Time (CST) Temp. Windchill Dew Point Humidity Pressure Visibility Wind Dir Wind Speed Gust Speed Precip Events Conditions
12:15 AM 4.5 °F -9.8 °F -1.3 °F 77% 30.09 in 10.0 mi West 9.2 mph - N/A   Clear
12:35 AM 4.3 °F -10.9 °F -1.3 °F 78% 30.10 in 10.0 mi West 10.4 mph - N/A   Clear
12:55 AM 4.1 °F -11.1 °F -1.5 °F 78% 30.11 in 10.0 mi West 10.4 mph - N/A   Clear
1:15 AM 3.9 °F -11.3 °F -1.8 °F 77% 30.11 in 10.0 mi West 10.4 mph - N/A   Clear
1:35 AM 3.4 °F -12.0 °F -2.0 °F 78% 30.12 in 10.0 mi West 10.4 mph - N/A   Clear
1:55 AM 3.6 °F -11.8 °F -2.2 °F 77% 30.12 in 10.0 mi West 10.4 mph - N/A   Clear
2:15 AM 2.8 °F -11.7 °F -2.7 °F 78% 30.13 in 10.0 mi West 9.2 mph - N/A   Clear
2:35 AM 2.3 °F -12.4 °F -3.1 °F 78% 30.13 in 10.0 mi West 9.2 mph - N/A   Clear
2:55 AM 2.1 °F -11.6 °F -3.3 °F 78% 30.13 in 10.0 mi West 8.1 mph - N/A   Clear
3:15 AM 1.6 °F -11.0 °F -3.6 °F 79% 30.13 in 10.0 mi West 6.9 mph - N/A   Clear
3:35 AM 1.0 °F -11.7 °F -4.0 °F 79% 30.13 in 10.0 mi West 6.9 mph - N/A   Clear
3:55 AM 1.2 °F -12.7 °F -4.0 °F 79% 30.13 in 10.0 mi West 8.1 mph - N/A   Clear
4:10 AM 1.0 °F -11.7 °F -4.2 °F 79% 30.13 in 10.0 mi West 6.9 mph - N/A   Clear
4:35 AM 0.5 °F -11.0 °F -4.5 °F 79% 30.13 in 10.0 mi West 5.8 mph - N/A   Clear
4:55 AM 0.5 °F -12.3 °F -4.5 °F 79% 30.14 in 10.0 mi West 6.9 mph - N/A   Clear
5:15 AM 0.5 °F -12.3 °F -4.5 °F 79% 30.14 in 10.0 mi WSW 6.9 mph - N/A   Clear
5:35 AM 0.3 °F -12.6 °F -4.9 °F 79% 30.14 in 10.0 mi West 6.9 mph - N/A   Clear
5:55 AM -0.4 °F -13.4 °F -5.3 °F 80% 30.14 in 10.0 mi West 6.9 mph - N/A   Clear
6:15 AM -0.6 °F -14.9 °F -5.1 °F 81% 30.14 in 10.0 mi West 8.1 mph - N/A   Clear
6:35 AM -0.6 °F -16.0 °F -5.3 °F 81% 30.14 in 10.0 mi West 9.2 mph - N/A   Clear
6:55 AM -0.0 °F -16.3 °F -4.9 °F 80% 30.14 in 10.0 mi West 10.4 mph - N/A   Clear
7:15 AM -0.6 °F -14.9 °F -5.6 °F 79% 30.14 in 10.0 mi West 8.1 mph - N/A   Clear
7:35 AM -0.0 °F -13.0 °F -5.1 °F 79% 30.15 in 10.0 mi West 6.9 mph - N/A   Clear
7:55 AM 0.9 °F -13.1 °F -4.7 °F 77% 30.16 in 10.0 mi West 8.1 mph - N/A   Clear
8:15 AM 1.4 °F -12.5 °F -4.4 °F 77% 30.16 in 10.0 mi West 8.1 mph - N/A   Clear
8:35 AM 2.7 °F -12.9 °F -3.8 °F 74% 30.16 in 10.0 mi West 10.4 mph - N/A   Clear
8:50 AM 3.6 °F -11.8 °F -3.1 °F 74% 30.17 in 10.0 mi West 10.4 mph - N/A   Clear
9:15 AM 5.2 °F -8.9 °F -1.8 °F 73% 30.17 in 10.0 mi West 9.2 mph - N/A   Clear
9:35 AM 6.4 °F -8.2 °F -1.3 °F 71% 30.17 in 10.0 mi West 10.4 mph - N/A   Clear
9:55 AM 7.3 °F -7.9 °F -0.9 °F 69% 30.17 in 10.0 mi West 11.5 mph - N/A   Clear
10:15 AM 8.1 °F -6.2 °F -0.4 °F 68% 30.18 in 10.0 mi West 10.4 mph - N/A   Clear
10:35 AM 8.6 °F -6.3 °F -0.0 °F 68% 30.18 in 10.0 mi West 11.5 mph - N/A   Clear
10:55 AM 9.7 °F -5.0 °F 0.7 °F 67% 30.18 in 10.0 mi West 11.5 mph - N/A   Clear
11:15 AM 10.4 °F -4.1 °F 1.2 °F 66% 30.18 in 10.0 mi West 11.5 mph 17.3 mph N/A   Clear
11:35 AM 11.3 °F -4.9 °F 1.6 °F 65% 30.19 in 10.0 mi WNW 15.0 mph - N/A   Clear
11:55 AM 12.4 °F -1.6 °F 2.3 °F 64% 30.18 in 10.0 mi West 11.5 mph - N/A   Clear
12:15 PM 13.1 °F 0.1 °F 3.2 °F 65% 30.18 in 10.0 mi West 10.4 mph 18.4 mph N/A   Clear
12:35 PM 13.5 °F -0.9 °F 3.2 °F 64% 30.17 in 10.0 mi West 12.7 mph - N/A   Clear
12:55 PM 14.4 °F 0.9 °F 3.6 °F 62% 30.16 in 10.0 mi West 11.5 mph - N/A   Clear
1:15 PM 14.9 °F -0.3 °F 4.1 °F 62% 30.16 in 10.0 mi West 15.0 mph - N/A   Clear
1:35 PM 14.9 °F -0.3 °F 4.1 °F 62% 30.15 in 10.0 mi West 15.0 mph - N/A   Clear
1:55 PM 15.4 °F 1.6 °F 4.5 °F 62% 30.15 in 10.0 mi West 12.7 mph - N/A   Clear
2:15 PM 15.6 °F 0.6 °F 4.8 °F 62% 30.15 in 10.0 mi West 15.0 mph - N/A   Clear
2:35 PM 15.8 °F 0.3 °F 5.0 °F 62% 30.15 in 10.0 mi West 16.1 mph 20.7 mph N/A   Clear
2:55 PM 15.8 °F -0.6 °F 5.2 °F 63% 30.16 in 10.0 mi West 18.4 mph - N/A   Clear
3:15 PM 16.0 °F 0.6 °F 5.0 °F 62% 30.16 in 10.0 mi West 16.1 mph 21.9 mph N/A   Clear
3:35 PM 16.0 °F 0.6 °F 5.2 °F 62% 30.16 in 10.0 mi West 16.1 mph - N/A   Clear
3:55 PM 15.8 °F 0.3 °F 5.2 °F 63% 30.16 in 10.0 mi West 16.1 mph - N/A   Clear
4:15 PM 15.4 °F 2.3 °F 5.0 °F 63% 30.16 in 10.0 mi West 11.5 mph - N/A   Clear
4:35 PM 15.1 °F 0.5 °F 4.8 °F 64% 30.16 in 10.0 mi West 13.8 mph - N/A   Clear
4:55 PM 14.7 °F 0.7 °F 4.8 °F 65% 30.16 in 10.0 mi West 12.7 mph 18.4 mph N/A   Clear
5:15 PM 14.0 °F -2.0 °F 4.1 °F 65% 30.16 in 10.0 mi West 16.1 mph - N/A   Clear
5:35 PM 12.9 °F -2.2 °F 3.9 °F 67% 30.16 in 10.0 mi West 13.8 mph 20.7 mph N/A   Clear
5:55 PM 12.0 °F -3.4 °F 3.6 °F 69% 30.17 in 10.0 mi West 13.8 mph - N/A   Clear
6:15 PM 11.1 °F -4.5 °F 3.2 °F 70% 30.18 in 10.0 mi West 13.8 mph - N/A   Clear
6:35 PM 10.8 °F -5.0 °F 3.0 °F 71% 30.18 in 10.0 mi West 13.8 mph - N/A   Clear
6:55 PM 10.2 °F -5.0 °F 2.8 °F 72% 30.19 in 10.0 mi West 12.7 mph - N/A   Clear
7:15 PM 9.9 °F -4.7 °F 2.7 °F 73% 30.19 in 10.0 mi West 11.5 mph - N/A   Clear
7:35 PM 9.3 °F -5.4 °F 2.5 °F 74% 30.19 in 10.0 mi West 11.5 mph - N/A   Clear
7:55 PM 9.3 °F -6.1 °F 2.3 °F 73% 30.19 in 10.0 mi West 12.7 mph - N/A   Clear
8:15 PM 8.6 °F -7.0 °F 2.3 °F 76% 30.19 in 10.0 mi West 12.7 mph - N/A   Clear
8:35 PM 8.4 °F -6.5 °F 2.1 °F 76% 30.19 in 10.0 mi West 11.5 mph - N/A   Clear
8:55 PM 7.9 °F -7.2 °F 1.6 °F 75% 30.20 in 10.0 mi West 11.5 mph - N/A   Clear
9:15 PM 7.5 °F -6.9 °F 1.2 °F 75% 30.20 in 10.0 mi West 10.4 mph 16.1 mph N/A   Clear
9:35 PM 7.5 °F -7.7 °F 1.2 °F 75% 30.20 in 10.0 mi West 11.5 mph - N/A   Clear
9:55 PM 7.0 °F -8.3 °F 0.5 °F 75% 30.21 in 10.0 mi West 11.5 mph - N/A   Clear
10:15 PM 6.6 °F -8.8 °F 0.3 °F 75% 30.21 in 10.0 mi West 11.5 mph - N/A   Clear
10:35 PM 6.3 °F -8.4 °F -0.0 °F 75% 30.21 in 10.0 mi West 10.4 mph - N/A   Clear
10:55 PM 5.9 °F -8.9 °F -0.2 °F 76% 30.21 in 10.0 mi West 10.4 mph - N/A   Clear
11:15 PM 5.4 °F -10.4 °F -0.6 °F 76% 30.21 in 10.0 mi West 11.5 mph - N/A   Clear
11:35 PM 5.5 °F -10.9 °F -0.6 °F 76% 30.21 in 10.0 mi West 12.7 mph - N/A   Clear
11:55 PM 5.0 °F -11.6 °F -0.8 °F 77% 30.21 in 10.0 mi West 12.7 mph - N/A   Clear